This is the latest recevied weather packets stored in our database for station/object N7WGJ. If no packets are shown the sender has not sent any weather packets the latest 10 day(s).
| Time | Temp. | Humidity | Pressure | Rain* | Wind** | Luminosity | Snow |
|---|---|---|---|---|---|---|---|
| 1777757502 | 20.56° C | 61% | 1015.4 hPa | 0 mm | - | - | - |
| 1777756302 | 19.44° C | 64% | 1015.6 hPa | 0 mm | - | - | - |
| 1777755702 | 20° C | 62% | 1015.7 hPa | 0 mm | - | - | - |
| 1777755093 | 20° C | 66% | 1015.8 hPa | 0 mm | - | - | - |
| 1777754495 | 19.44° C | 68% | 1016 hPa | 0 mm | - | - | - |
| 1777753892 | 18.89° C | 70% | 1016 hPa | 0 mm | - | - | - |
| 1777753295 | 18.89° C | 71% | 1016 hPa | 0 mm | - | - | - |
| 1777752696 | 18.89° C | 69% | 1016 hPa | 0 mm | - | - | - |
| 1777752111 | 18.89° C | 71% | 1016.2 hPa | 0 mm | - | - | - |
| 1777751495 | 18.89° C | 70% | 1016.3 hPa | 0 mm | - | - | - |
| 1777750898 | 18.33° C | 73% | 1016.4 hPa | 0 mm | - | - | - |
| 1777750299 | 17.78° C | 73% | 1016.6 hPa | 0 mm | - | - | - |
| 1777749696 | 17.78° C | 74% | 1016.6 hPa | 0 mm | - | - | - |
| 1777748495 | 17.22° C | 74% | 1017 hPa | 0 mm | - | - | - |
| 1777747884 | 17.22° C | 75% | 1016.9 hPa | 0 mm | - | - | - |
| 1777747284 | 16.67° C | 76% | 1017 hPa | 0 mm | - | - | - |
| 1777746687 | 16.11° C | 77% | 1017.1 hPa | 0 mm | - | - | - |
| 1777746087 | 16.11° C | 77% | 1017.3 hPa | 0 mm | - | - | - |
| 1777745487 | 15.56° C | 78% | 1017.3 hPa | 0 mm | - | - | - |
| 1777744898 | 15.56° C | 79% | 1017.3 hPa | 0 mm | - | - | - |
| 1777744287 | 15° C | 80% | 1017.4 hPa | 0 mm | - | - | - |
| 1777743685 | 13.89° C | 82% | 1017.4 hPa | 0 mm | - | - | - |
| 1777743085 | 13.89° C | 83% | 1017.4 hPa | 0 mm | - | - | - |
| 1777742487 | 13.89° C | 84% | 1017.4 hPa | 0 mm | - | - | - |
| 1777741888 | 13.33° C | 84% | 1017.5 hPa | 0 mm | - | - | - |
* Rain latest hour (hover to see other rain measurements)
** Current wind speed in m/s (hover to see current wind gust speed)